Regional Weather Roundup
Issued by NWS

Home | Current Version | Previous Version | Text Only | Print | Product List | Glossary Off
Versions: 1 2 3 4 5 6 7 8 9 10 11 12 13 14 15 16 17 18 19 20 21 22 23 24 25 26 27 28 29 30 31 32 33 34 35 36 37 38 39 40 41 42 43 44 45 46 47 48 49 50

761
ASUS45 KTFX 130110
RWRMT
MONTANA REGIONAL WEATHER ROUNDUP
NATIONAL WEATHER SERVICE GREAT FALLS MT
600 PM MST TUE DEC 12 2017

NOTE: "FAIR" INDICATES FEW OR NO CLOUDS BELOW 12000 FEET WITH NO
SIGNIFICANT WEATHER AND/OR OBSTRUCTIONS TO VISIBILITY.

MTZ001>007-043-130200-
WEST OF THE DIVIDE

CITY           SKY/WX    TMP DP  RH WIND       PRES   REMARKS
KALISPELL      CLOUDY    26  25  96 CALM      30.43S
MISSOULA       FAIR      20  17  88 CALM      30.44R
BUTTE          FAIR      26  18  71 CALM      30.34R
MULLAN PASS    CLOUDY    29  11  47 VRB3      30.34R
ANACONDA         N/A     25  18  74 S3        30.35S
DEER LODGE       N/A     25  19  80 CALM      30.37F
EUREKA           N/A     25  18  74 MISG      30.46R
HAMILTON         N/A     19  16  86 CALM      30.40F
LIBBY            N/A     27  21  80 CALM      30.46R
$$

MTZ008-052>055-130200-
SOUTHWEST MONTANA

CITY           SKY/WX    TMP DP  RH WIND       PRES   REMARKS
BOZEMAN        MOCLDY    29  23  78 S5        30.31S
DILLON         FAIR      32  17  54 SW5       30.30R
W YELLOWSTONE  FAIR      21  10  63 CALM      30.37S
ENNIS          CLOUDY    37  19  48 S10       30.36R WCI  30
$$

MTZ009-010-012-014-046-048-049-054-130200-
EAST SLOPES AND CENTRAL MONTANA

CITY           SKY/WX    TMP DP  RH WIND       PRES   REMARKS
CUT BANK       FAIR      42  10  27 W12       30.15R
GREAT FALLS    CLOUDY    49   4  16 SW17      30.16R
MALMSTROM AFB  MOCLDY    50   4  15 SW25      30.15R
HELENA         FAIR      26  20  77 CALM      30.30S
BOWMANS CRNR   MOCLDY    42   6  23 S21       30.16F
CHOTEAU          N/A     52   7  16 W22G31    30.18R
FAIRFIELD      CLOUDY    49   2  15 W13       30.16R
POWER          MOCLDY    46   4  18 W8        30.15R
RAYNESFORD     FAIR      53   2  13 W29G43    30.12S
ULM            CLOUDY    48   5  17 SW16      30.17F
$$

MTZ011-013-016-021-045-047-050-051-130200-
NORTH CENTRAL MONTANA

CITY           SKY/WX    TMP DP  RH WIND       PRES   REMARKS
HAVRE          CLOUDY    46  11  24 SW9       30.08R
LEWISTOWN      FAIR      44  12  27 CALM      30.12R
N BAR RANCH    FAIR      48   1  14 NW15G22   30.12R
CHINOOK          N/A     48  12  23 W9        30.06R
DENTON         FAIR      53   4  14 NW23      30.08R
GEYSER         MOCLDY    49   2  15 NW23G31   30.11F
GRASS RANGE    FAIR      53   2  13 NW21G28   30.06R
STANFORD       MOCLDY    49   2  14 NW21      30.10S
WINIFRED       MOCLDY    50   2  14 NW18G28   30.10R
$$

MTZ017>020-022>027-061-062-130200-
NORTHEAST MONTANA

CITY           SKY/WX    TMP DP  RH WIND       PRES   REMARKS
GLASGOW        FAIR      50  22  33 NW18      29.90R
GLENDIVE       FAIR      52  13  21 NW30G37   29.80F
JORDAN           N/A     54  11  18 NW29G36   29.97R
SIDNEY         FAIR      51  16  24 NW28G35   29.72F
WOLF POINT     FAIR      52  23  32 W17G25    29.83R
MALTA          PTCLDY    48  18  29 W16G23    29.99R
PLENTYWOOD       N/A     46  27  46 NW32G38   29.69R
$$

MTZ028>42-056>058-130200-
SOUTHCENTRAL AND SOUTHEAST MONTANA

CITY           SKY/WX    TMP DP  RH WIND       PRES   REMARKS
BAKER          FAIR      42  20  41 W12       29.84F
BILLINGS       MOCLDY    53   1  12 NW21      30.08F
LIVINGSTON     FAIR      49   8  19 W17       30.22S
MILES CITY     FAIR      54  12  18 NW20G30   29.92R
BIG TIMBER     CLOUDY    48   3  15 SW15G23   30.21R
FORSYTH          N/A     59   7  12 W20G31    29.97R
LAUREL           N/A     48   7  18 W14       30.10F
$$

REGIONAL REPORTS...DAKOTAS

CITY           SKY/WX    TMP DP  RH WIND       PRES   REMARKS
WILLISTON      FAIR      46  18  32 W14       29.68S
MINOT          FAIR      47  22  37 W18       29.56F
DICKINSON      FAIR      46  19  34 W20       29.69F
BEACH          MOCLDY    46  12  25 W20       29.81F
CROSBY         FAIR      43  25  49 NW20G26   29.63F
TIOGA          FAIR      41  21  45 W15       29.64F
WATFORD CITY   FAIR      48  16  27 W12G18    29.69F
BISMARCK       FAIR      46  24  42 SW10      29.66F
GRAND FORKS    MOCLDY    29  27  92 SE12      29.56F WCI  19
FARGO          FAIR      36  29  75 S10       29.62F WCI  28
BUFFALO SD       N/A     45  16  31 W20       29.77F
RAPID CITY     FAIR      36  14  40 NW3       29.89F
$$

REGIONAL REPORTS...WYOMING/IDAHO/WASHINGTON

CITY           SKY/WX    TMP DP  RH WIND       PRES   REMARKS
GILLETTE       FAIR      43  20  39 W14       30.03R
SHERIDAN       FAIR      53  12  19 NW21      30.04S
BUFFALO WY     FAIR      52   9  17 NW10      30.07S
CODY           FAIR      42  11  28 S6        30.16S
YELLOWSTONE LA   N/A     18  15  88 NW3       30.38F
IDAHO FALLS    FAIR      17  14  88 CALM      30.43R
SALMON         CLOUDY    15  13  91 CALM      30.53S
BOISE          CLOUDY    23  21  92 NW6       30.55S FOG     WCI  16
SPOKANE        CLOUDY    25  23  92 CALM      30.49S FOG
$$

REGIONAL REPORTS...ALBERTA

CITY           SKY/WX    TMP DP  RH WIND       PRES   REMARKS
EDMONTON       PTCLDY    43  27  52 W13G18    30.06R
CALGARY        PTCLDY    39  14  35 N6        30.15R
LETHBRIDGE     PTCLDY    45  14  29 W21G26    30.12R
MEDICINE HAT   PTCLDY    37  19  48 W9        30.07R WCI  31
$$

REGIONAL REPORTS...SASKATCHEWAN

CITY           SKY/WX    TMP DP  RH WIND       PRES   REMARKS
SWIFT CURRENT  CLOUDY    43  25  49 NW25G37   29.86R
REGINA         CLOUDY    39  30  70 NW23      29.68R WCI  29
SASKATOON      MOCLDY    37  30  75 NW18G25   29.78R WCI  27
$$




USA.gov is the U.S. government's official web portal to all federal, state and local government web resources and services.